Time,TemperatureF,DewpointF,PressureIn,WindDirection,WindDirectionDegrees,WindSpeedMPH,WindSpeedGustMPH,Humidity,HourlyPrecipIn,Conditions,Clouds,dailyrainin,SoftwareType,DateUTC
2013-05-04 00:01:00,41.1,22.9,30.07,NNE,18,7.0,10.0,48,0.00,,,0.00,VWS V14.01,2013-05-04 05:01:00,
2013-05-04 00:06:00,40.9,23.7,30.07,NNE,30,7.0,11.0,50,0.00,,,0.00,VWS V14.01,2013-05-04 05:06:00,
2013-05-04 00:11:00,40.6,19.9,30.07,North,8,5.0,11.0,43,0.00,,,0.00,VWS V14.01,2013-05-04 05:11:00,
2013-05-04 00:16:00,40.6,23.4,30.07,NNE,27,7.0,12.0,50,0.00,,,0.00,VWS V14.01,2013-05-04 05:16:00,
2013-05-04 00:21:00,40.5,21.9,30.06,NNE,32,10.0,10.0,47,0.00,,,0.00,VWS V14.01,2013-05-04 05:21:00,
2013-05-04 00:26:00,40.5,23.8,30.06,NNE,24,8.0,10.0,51,0.00,,,0.00,VWS V14.01,2013-05-04 05:26:00,
2013-05-04 00:31:00,40.6,24.8,30.06,NNE,27,7.0,10.0,53,0.00,,,0.00,VWS V14.01,2013-05-04 05:31:00,
2013-05-04 00:36:00,40.5,22.9,30.05,NNE,17,8.0,11.0,49,0.00,,,0.00,VWS V14.01,2013-05-04 05:36:00,
2013-05-04 00:41:00,40.2,21.6,30.05,NNE,20,7.0,11.0,47,0.00,,,0.00,VWS V14.01,2013-05-04 05:41:00,
2013-05-04 00:46:00,40.2,22.6,30.05,North,0,8.0,11.0,49,0.00,,,0.00,VWS V14.01,2013-05-04 05:46:00,
2013-05-04 00:51:00,39.9,23.3,30.06,NNE,23,5.0,10.0,51,0.00,,,0.00,VWS V14.01,2013-05-04 05:51:00,
2013-05-04 00:56:00,39.6,21.0,30.06,North,11,7.0,11.0,47,0.00,,,0.00,VWS V14.01,2013-05-04 05:56:00,
2013-05-04 01:01:00,39.6,23.0,30.06,NNE,18,6.0,11.0,51,0.00,,,0.00,VWS V14.01,2013-05-04 06:01:00,
2013-05-04 01:06:00,39.8,24.1,30.06,North,11,7.0,12.0,53,0.00,,,0.00,VWS V14.01,2013-05-04 06:06:00,
2013-05-04 01:11:00,39.6,22.5,30.06,NNE,17,7.0,12.0,50,0.00,,,0.00,VWS V14.01,2013-05-04 06:11:00,
2013-05-04 01:16:00,39.6,23.0,30.05,North,3,7.0,12.0,51,0.00,,,0.00,VWS V14.01,2013-05-04 06:16:00,
2013-05-04 01:21:00,39.3,24.1,30.05,North,359,10.0,12.0,54,0.00,,,0.00,VWS V14.01,2013-05-04 06:21:00,
2013-05-04 01:26:00,38.2,22.6,30.05,North,359,10.0,12.0,53,0.00,,,0.00,VWS V14.01,2013-05-04 06:26:00,
2013-05-04 01:31:00,38.0,23.7,30.06,North,6,7.0,12.0,56,0.00,,,0.00,VWS V14.01,2013-05-04 06:31:00,
2013-05-04 01:36:00,38.2,22.1,30.06,NNE,30,8.0,11.0,52,0.00,,,0.00,VWS V14.01,2013-05-04 06:36:00,
2013-05-04 01:41:00,38.3,24.0,30.06,North,7,6.0,12.0,56,0.00,,,0.00,VWS V14.01,2013-05-04 06:41:00,
2013-05-04 01:46:00,38.5,24.6,30.06,North,359,6.0,12.0,57,0.00,,,0.00,VWS V14.01,2013-05-04 06:46:00,
2013-05-04 01:51:00,38.5,23.3,30.05,North,354,10.0,12.0,54,0.00,,,0.00,VWS V14.01,2013-05-04 06:51:00,
2013-05-04 01:56:00,38.5,23.3,30.05,North,8,8.0,12.0,54,0.00,,,0.00,VWS V14.01,2013-05-04 06:56:00,
2013-05-04 02:01:00,38.5,23.8,30.05,North,354,12.0,13.0,55,0.00,,,0.00,VWS V14.01,2013-05-04 07:01:00,
2013-05-04 02:06:00,38.2,23.5,30.05,NNE,18,10.0,13.0,55,0.00,,,0.00,VWS V14.01,2013-05-04 07:06:00,
2013-05-04 02:11:00,37.6,24.6,30.05,NNW,347,10.0,14.0,59,0.00,,,0.00,VWS V14.01,2013-05-04 07:11:00,
2013-05-04 02:16:00,37.2,22.5,30.05,North,352,11.0,14.0,55,0.00,,,0.00,VWS V14.01,2013-05-04 07:16:00,
2013-05-04 02:21:00,37.6,25.8,30.05,North,0,12.0,16.0,62,0.00,,,0.00,VWS V14.01,2013-05-04 07:21:00,
2013-05-04 02:26:00,37.8,24.8,30.05,North,8,9.0,16.0,59,0.00,,,0.00,VWS V14.01,2013-05-04 07:26:00,
2013-05-04 02:31:00,37.6,25.0,30.04,North,359,11.0,16.0,60,0.00,,,0.00,VWS V14.01,2013-05-04 07:31:00,
2013-05-04 02:36:00,36.8,22.6,30.04,North,359,10.0,14.0,56,0.00,,,0.00,VWS V14.01,2013-05-04 07:36:00,
2013-05-04 02:41:00,36.5,24.7,30.04,North,354,12.0,14.0,62,0.00,,,0.00,VWS V14.01,2013-05-04 07:41:00,
2013-05-04 02:46:00,36.8,25.8,30.04,North,354,11.0,15.0,64,0.00,,,0.00,VWS V14.01,2013-05-04 07:46:00,
2013-05-04 02:51:00,36.8,24.6,30.04,North,359,10.0,16.0,61,0.00,,,0.00,VWS V14.01,2013-05-04 07:51:00,
2013-05-04 02:56:00,36.5,25.9,30.04,North,0,10.0,16.0,65,0.00,,,0.00,VWS V14.01,2013-05-04 07:56:00,
2013-05-04 03:01:00,36.5,26.2,30.04,North,359,10.0,16.0,66,0.00,,,0.00,VWS V14.01,2013-05-04 08:01:00,
2013-05-04 03:06:00,36.3,25.7,30.04,North,1,11.0,14.0,65,0.00,,,0.00,VWS V14.01,2013-05-04 08:06:00,
2013-05-04 03:11:00,36.3,23.4,30.04,North,356,12.0,16.0,59,0.00,,,0.00,VWS V14.01,2013-05-04 08:11:00,
2013-05-04 03:16:00,36.5,25.5,30.03,North,359,11.0,16.0,64,0.00,,,0.00,VWS V14.01,2013-05-04 08:16:00,
2013-05-04 03:21:00,36.3,24.1,30.03,North,1,10.0,14.0,61,0.00,,,0.00,VWS V14.01,2013-05-04 08:21:00,
2013-05-04 03:26:00,35.8,24.5,30.03,North,356,9.0,14.0,63,0.00,,,0.00,VWS V14.01,2013-05-04 08:26:00,
2013-05-04 03:31:00,35.3,25.1,30.04,North,0,12.0,14.0,66,0.00,,,0.00,VWS V14.01,2013-05-04 08:31:00,
2013-05-04 03:36:00,35.5,24.2,30.04,NNE,14,7.0,16.0,63,0.00,,,0.00,VWS V14.01,2013-05-04 08:36:00,
2013-05-04 03:41:00,35.8,25.9,30.04,North,350,10.0,16.0,67,0.00,,,0.00,VWS V14.01,2013-05-04 08:41:00,
2013-05-04 03:46:00,35.8,24.8,30.04,North,0,12.0,17.0,64,0.00,,,0.00,VWS V14.01,2013-05-04 08:46:00,
2013-05-04 03:51:00,35.9,23.4,30.04,North,357,13.0,15.0,60,0.00,,,0.00,VWS V14.01,2013-05-04 08:51:00,
2013-05-04 03:56:00,35.6,23.9,30.04,NNW,343,12.0,17.0,62,0.00,,,0.00,VWS V14.01,2013-05-04 08:56:00,
2013-05-04 04:01:00,34.6,22.2,30.05,North,353,7.0,17.0,60,0.00,,,0.00,VWS V14.01,2013-05-04 09:01:00,
2013-05-04 04:06:00,34.0,21.6,30.05,NNW,346,7.0,14.0,60,0.00,,,0.00,VWS V14.01,2013-05-04 09:06:00,
2013-05-04 04:11:00,33.8,21.0,30.05,North,352,10.0,14.0,59,0.00,,,0.00,VWS V14.01,2013-05-04 09:11:00,
2013-05-04 04:16:00,33.8,21.8,30.05,NNW,340,8.0,14.0,61,0.00,,,0.00,VWS V14.01,2013-05-04 09:16:00,
2013-05-04 04:21:00,33.8,22.9,30.05,NNW,344,7.0,12.0,64,0.00,,,0.00,VWS V14.01,2013-05-04 09:21:00,
2013-05-04 04:26:00,34.0,24.6,30.05,North,350,10.0,16.0,68,0.00,,,0.00,VWS V14.01,2013-05-04 09:26:00,
2013-05-04 04:31:00,34.7,25.9,30.04,North,0,8.0,16.0,70,0.00,,,0.00,VWS V14.01,2013-05-04 09:31:00,
2013-05-04 04:36:00,35.0,26.9,30.04,North,356,9.0,14.0,72,0.00,,,0.00,VWS V14.01,2013-05-04 09:36:00,
2013-05-04 04:41:00,34.9,26.1,30.04,North,359,10.0,16.0,70,0.00,,,0.00,VWS V14.01,2013-05-04 09:41:00,
2013-05-04 04:46:00,34.0,23.5,30.05,North,350,7.0,17.0,65,0.00,,,0.00,VWS V14.01,2013-05-04 09:46:00,
2013-05-04 04:51:00,33.4,23.3,30.05,North,349,5.0,12.0,66,0.00,,,0.00,VWS V14.01,2013-05-04 09:51:00,
2013-05-04 04:56:00,32.9,22.8,30.05,North,359,7.0,12.0,66,0.00,,,0.00,VWS V14.01,2013-05-04 09:56:00,
2013-05-04 05:01:00,32.9,23.5,30.05,North,359,10.0,16.0,68,0.00,,,0.00,VWS V14.01,2013-05-04 10:01:00,
2013-05-04 05:06:00,33.1,24.4,30.05,NNW,346,13.0,15.0,70,0.00,,,0.00,VWS V14.01,2013-05-04 10:06:00,
2013-05-04 05:11:00,33.2,23.5,30.05,North,349,10.0,17.0,67,0.00,,,0.00,VWS V14.01,2013-05-04 10:11:00,
2013-05-04 05:17:00,33.2,23.5,30.05,North,352,8.0,17.0,67,0.00,,,0.00,VWS V14.01,2013-05-04 10:17:00,
2013-05-04 05:22:00,33.2,23.5,30.05,North,352,12.0,16.0,67,0.00,,,0.00,VWS V14.01,2013-05-04 10:22:00,
2013-05-04 05:27:00,33.2,23.8,30.05,North,357,7.0,16.0,68,0.00,,,0.00,VWS V14.01,2013-05-04 10:27:00,
2013-05-04 05:32:00,32.9,22.8,30.06,North,353,7.0,16.0,66,0.00,,,0.00,VWS V14.01,2013-05-04 10:32:00,
2013-05-04 05:37:00,32.8,22.7,30.06,North,357,12.0,12.0,66,0.00,,,0.00,VWS V14.01,2013-05-04 10:37:00,
2013-05-04 05:42:00,33.1,23.4,30.06,North,353,12.0,17.0,67,0.00,,,0.00,VWS V14.01,2013-05-04 10:42:00,
2013-05-04 05:47:00,32.9,24.2,30.06,North,0,14.0,18.0,70,0.00,,,0.00,VWS V14.01,2013-05-04 10:47:00,
2013-05-04 05:52:00,32.7,23.3,30.06,North,359,8.0,14.0,68,0.00,,,0.00,VWS V14.01,2013-05-04 10:52:00,
2013-05-04 05:57:00,32.5,23.5,30.06,North,359,14.0,14.0,69,0.00,,,0.00,VWS V14.01,2013-05-04 10:57:00,
2013-05-04 06:02:00,32.4,22.7,30.06,NNW,335,6.0,19.0,67,0.00,,,0.00,VWS V14.01,2013-05-04 11:02:00,
2013-05-04 06:07:00,32.1,22.8,30.06,North,354,11.0,11.0,68,0.00,,,0.00,VWS V14.01,2013-05-04 11:07:00,
2013-05-04 06:12:00,32.4,23.7,30.06,North,352,7.0,18.0,70,0.00,,,0.00,VWS V14.01,2013-05-04 11:12:00,
2013-05-04 06:17:00,32.7,24.0,30.06,North,350,17.0,19.0,70,0.00,,,0.00,VWS V14.01,2013-05-04 11:17:00,
2013-05-04 06:22:00,32.8,23.4,30.06,North,359,16.0,18.0,68,0.00,,,0.00,VWS V14.01,2013-05-04 11:22:00,
2013-05-04 06:27:00,32.8,23.8,30.06,North,359,17.0,19.0,69,0.00,,,0.00,VWS V14.01,2013-05-04 11:27:00,
2013-05-04 06:32:00,32.9,24.5,30.06,North,350,12.0,19.0,71,0.00,,,0.00,VWS V14.01,2013-05-04 11:32:00,
2013-05-04 06:37:00,32.7,24.4,30.06,North,359,13.0,19.0,71,0.00,,,0.00,VWS V14.01,2013-05-04 11:37:00,
2013-05-04 06:42:00,32.4,23.4,30.06,North,357,8.0,19.0,69,0.00,,,0.00,VWS V14.01,2013-05-04 11:42:00,
2013-05-04 06:47:00,32.1,23.4,30.07,North,354,15.0,19.0,70,0.00,,,0.00,VWS V14.01,2013-05-04 11:47:00,
2013-05-04 06:52:00,32.2,24.2,30.07,North,0,10.0,17.0,72,0.00,,,0.00,VWS V14.01,2013-05-04 11:52:00,
2013-05-04 06:57:00,32.1,23.4,30.07,North,349,11.0,17.0,70,0.00,,,0.00,VWS V14.01,2013-05-04 11:57:00,
2013-05-04 07:02:00,32.2,24.2,30.06,North,356,7.0,17.0,72,0.00,,,0.00,VWS V14.01,2013-05-04 12:02:00,
2013-05-04 07:07:00,32.2,23.9,30.06,North,359,10.0,14.0,71,0.00,,,0.00,VWS V14.01,2013-05-04 12:07:00,
2013-05-04 07:12:00,32.4,23.7,30.06,NNW,330,7.0,16.0,70,0.00,,,0.00,VWS V14.01,2013-05-04 12:12:00,
2013-05-04 07:17:00,32.7,24.4,30.07,North,356,13.0,17.0,71,0.00,,,0.00,VWS V14.01,2013-05-04 12:17:00,
2013-05-04 07:22:00,32.8,24.5,30.07,North,359,12.0,18.0,71,0.00,,,0.00,VWS V14.01,2013-05-04 12:22:00,
2013-05-04 07:27:00,33.1,25.4,30.07,North,359,13.0,19.0,73,0.00,,,0.00,VWS V14.01,2013-05-04 12:27:00,
2013-05-04 07:32:00,33.4,25.4,30.07,North,354,16.0,19.0,72,0.00,,,0.00,VWS V14.01,2013-05-04 12:32:00,
2013-05-04 07:37:00,33.4,24.7,30.07,NNW,337,7.0,20.0,70,0.00,,,0.00,VWS V14.01,2013-05-04 12:37:00,
2013-05-04 07:42:00,33.2,25.2,30.07,North,354,12.0,20.0,72,0.00,,,0.00,VWS V14.01,2013-05-04 12:42:00,
2013-05-04 07:47:00,33.4,25.4,30.07,North,354,10.0,20.0,72,0.00,,,0.00,VWS V14.01,2013-05-04 12:47:00,
2013-05-04 07:52:00,33.5,25.8,30.07,NNW,335,12.0,19.0,73,0.00,,,0.00,VWS V14.01,2013-05-04 12:52:00,
2013-05-04 07:57:00,33.5,25.5,30.07,North,359,8.0,19.0,72,0.00,,,0.00,VWS V14.01,2013-05-04 12:57:00,
2013-05-04 08:02:00,33.7,25.6,30.07,North,3,17.0,19.0,72,0.00,,,0.00,VWS V14.01,2013-05-04 13:02:00,
2013-05-04 08:03:00,33.7,25.6,30.07,North,0,12.0,21.0,72,0.00,,,0.00,VWS V14.01,2013-05-04 13:03:00,
2013-05-04 08:08:00,34.0,25.9,30.07,North,356,17.0,21.0,72,0.00,,,0.00,VWS V14.01,2013-05-04 13:08:00,
2013-05-04 08:13:00,34.6,27.2,30.07,NNW,330,11.0,21.0,74,0.00,,,0.00,VWS V14.01,2013-05-04 13:13:00,
2013-05-04 08:18:00,35.2,29.0,30.08,North,359,20.0,20.0,78,0.00,,,0.00,VWS V14.01,2013-05-04 13:18:00,
2013-05-04 08:23:00,35.6,28.5,30.08,North,359,13.0,21.0,75,0.00,,,0.00,VWS V14.01,2013-05-04 13:23:00,
2013-05-04 08:28:00,35.9,28.4,30.08,North,359,19.0,22.0,74,0.00,,,0.00,VWS V14.01,2013-05-04 13:28:00,
2013-05-04 08:33:00,36.2,29.0,30.07,North,350,16.0,21.0,75,0.00,,,0.00,VWS V14.01,2013-05-04 13:33:00,
2013-05-04 08:38:00,36.5,28.7,30.07,North,359,15.0,25.0,73,0.00,,,0.00,VWS V14.01,2013-05-04 13:38:00,
2013-05-04 08:43:00,36.5,28.0,30.07,North,0,17.0,25.0,71,0.00,,,0.00,VWS V14.01,2013-05-04 13:43:00,
2013-05-04 08:48:00,37.5,31.3,30.07,North,354,12.0,18.0,78,0.00,,,0.00,VWS V14.01,2013-05-04 13:48:00,
2013-05-04 08:53:00,38.2,31.3,30.07,North,8,12.0,21.0,76,0.00,,,0.00,VWS V14.01,2013-05-04 13:53:00,
2013-05-04 08:58:00,39.3,28.9,30.07,North,353,26.0,26.0,66,0.00,,,0.00,VWS V14.01,2013-05-04 13:58:00,
2013-05-04 09:03:00,39.3,28.9,30.06,North,0,19.0,26.0,66,0.00,,,0.00,VWS V14.01,2013-05-04 14:03:00,
2013-05-04 09:08:00,39.6,30.3,30.06,NNE,32,17.0,26.0,69,0.00,,,0.00,VWS V14.01,2013-05-04 14:08:00,
2013-05-04 09:13:00,39.9,30.6,30.06,North,353,24.0,27.0,69,0.00,,,0.00,VWS V14.01,2013-05-04 14:13:00,
2013-05-04 09:18:00,39.9,30.2,30.07,North,349,19.0,24.0,68,0.00,,,0.00,VWS V14.01,2013-05-04 14:18:00,
2013-05-04 09:23:00,40.6,29.8,30.07,North,354,12.0,24.0,65,0.00,,,0.00,VWS V14.01,2013-05-04 14:23:00,
2013-05-04 09:28:00,40.9,28.1,30.07,North,350,14.0,24.0,60,0.00,,,0.00,VWS V14.01,2013-05-04 14:28:00,
2013-05-04 09:33:00,41.1,28.7,30.06,North,359,16.0,28.0,61,0.00,,,0.00,VWS V14.01,2013-05-04 14:33:00,
2013-05-04 09:38:00,41.2,28.0,30.06,North,359,19.0,28.0,59,0.00,,,0.00,VWS V14.01,2013-05-04 14:38:00,
2013-05-04 09:43:00,41.5,31.0,30.06,North,359,17.0,28.0,66,0.00,,,0.00,VWS V14.01,2013-05-04 14:43:00,
2013-05-04 09:48:00,41.6,26.2,30.06,NNE,17,11.0,19.0,54,0.00,,,0.00,VWS V14.01,2013-05-04 14:48:00,
2013-05-04 09:53:00,41.9,29.9,30.06,NNE,18,10.0,27.0,62,0.00,,,0.00,VWS V14.01,2013-05-04 14:53:00,
2013-05-04 09:58:00,42.3,28.6,30.06,North,1,14.0,27.0,58,0.00,,,0.00,VWS V14.01,2013-05-04 14:58:00,
2013-05-04 10:03:00,42.3,29.0,30.06,North,359,24.0,24.0,59,0.00,,,0.00,VWS V14.01,2013-05-04 15:03:00,
2013-05-04 10:08:00,42.2,27.2,30.06,North,359,22.0,29.0,55,0.00,,,0.00,VWS V14.01,2013-05-04 15:08:00,
2013-05-04 10:13:00,42.5,26.6,30.06,North,359,17.0,29.0,53,0.00,,,0.00,VWS V14.01,2013-05-04 15:13:00,
2013-05-04 10:18:00,43.1,28.9,30.06,NNE,24,12.0,16.0,57,0.00,,,0.00,VWS V14.01,2013-05-04 15:18:00,
2013-05-04 10:23:00,42.6,26.2,30.06,North,1,12.0,30.0,52,0.00,,,0.00,VWS V14.01,2013-05-04 15:23:00,
2013-05-04 10:28:00,42.8,25.0,30.06,NNE,20,17.0,30.0,49,0.00,,,0.00,VWS V14.01,2013-05-04 15:28:00,
2013-05-04 10:33:00,43.3,28.2,30.06,North,356,13.0,24.0,55,0.00,,,0.00,VWS V14.01,2013-05-04 15:33:00,
2013-05-04 10:39:00,43.3,28.2,30.06,North,359,16.0,24.0,55,0.00,,,0.00,VWS V14.01,2013-05-04 15:39:00,
2013-05-04 10:44:00,43.3,22.9,30.06,NNE,18,19.0,24.0,44,0.00,,,0.00,VWS V14.01,2013-05-04 15:44:00,
2013-05-04 10:49:00,43.9,25.0,30.06,NNE,14,12.0,20.0,47,0.00,,,0.00,VWS V14.01,2013-05-04 15:49:00,
2013-05-04 10:54:00,43.6,25.7,30.06,North,356,16.0,21.0,49,0.00,,,0.00,VWS V14.01,2013-05-04 15:54:00,
2013-05-04 10:59:00,43.8,26.9,30.06,North,3,19.0,24.0,51,0.00,,,0.00,VWS V14.01,2013-05-04 15:59:00,
2013-05-04 11:04:00,43.8,25.9,30.06,North,354,27.0,27.0,49,0.00,,,0.00,VWS V14.01,2013-05-04 16:04:00,
2013-05-04 11:09:00,43.9,27.4,30.06,North,354,28.0,28.0,52,0.00,,,0.00,VWS V14.01,2013-05-04 16:09:00,
2013-05-04 11:14:00,44.5,28.0,30.06,North,356,27.0,28.0,52,0.00,,,0.00,VWS V14.01,2013-05-04 16:14:00,
2013-05-04 11:19:00,44.5,25.0,30.07,North,359,16.0,22.0,46,0.00,,,0.00,VWS V14.01,2013-05-04 16:19:00,
2013-05-04 11:24:00,44.8,24.8,30.07,North,8,11.0,25.0,45,0.00,,,0.00,VWS V14.01,2013-05-04 16:24:00,
2013-05-04 11:29:00,45.4,26.9,30.07,North,0,12.0,25.0,48,0.00,,,0.00,VWS V14.01,2013-05-04 16:29:00,
2013-05-04 11:34:00,45.5,25.4,30.07,NNE,20,14.0,19.0,45,0.00,,,0.00,VWS V14.01,2013-05-04 16:34:00,
2013-05-04 11:39:00,45.7,23.4,30.07,North,0,15.0,24.0,41,0.00,,,0.00,VWS V14.01,2013-05-04 16:39:00,
2013-05-04 11:43:00,45.5,24.3,30.07,North,8,16.0,28.0,43,0.00,,,0.00,VWS V14.01,2013-05-04 16:43:00,
2013-05-04 11:49:00,46.1,24.3,30.07,North,356,13.0,21.0,42,0.00,,,0.00,VWS V14.01,2013-05-04 16:49:00,
2013-05-04 11:54:00,46.4,25.1,30.07,North,359,12.0,25.0,43,0.00,,,0.00,VWS V14.01,2013-05-04 16:54:00,
2013-05-04 11:59:00,46.5,24.1,30.07,NNE,13,13.0,25.0,41,0.00,,,0.00,VWS V14.01,2013-05-04 16:59:00,
2013-05-04 12:04:00,46.5,24.7,30.06,NNW,347,21.0,27.0,42,0.00,,,0.00,VWS V14.01,2013-05-04 17:04:00,
2013-05-04 12:09:00,46.8,23.8,30.06,North,359,13.0,27.0,40,0.00,,,0.00,VWS V14.01,2013-05-04 17:09:00,
2013-05-04 12:14:00,47.1,24.0,30.06,North,359,19.0,27.0,40,0.00,,,0.00,VWS V14.01,2013-05-04 17:14:00,
2013-05-04 12:19:00,47.1,22.2,30.07,North,7,10.0,17.0,37,0.00,,,0.00,VWS V14.01,2013-05-04 17:19:00,
2013-05-04 12:24:00,47.1,24.6,30.07,North,359,17.0,24.0,41,0.00,,,0.00,VWS V14.01,2013-05-04 17:24:00,
2013-05-04 12:29:00,47.1,20.9,30.07,NNE,14,12.0,26.0,35,0.00,,,0.00,VWS V14.01,2013-05-04 17:29:00,
2013-05-04 12:34:00,47.9,26.5,30.06,North,356,10.0,16.0,43,0.00,,,0.00,VWS V14.01,2013-05-04 17:34:00,
2013-05-04 12:39:00,48.2,23.8,30.06,NNE,28,13.0,24.0,38,0.00,,,0.00,VWS V14.01,2013-05-04 17:39:00,
2013-05-04 12:44:00,48.0,23.0,30.06,North,359,14.0,24.0,37,0.00,,,0.00,VWS V14.01,2013-05-04 17:44:00,
2013-05-04 12:49:00,48.0,23.0,30.06,NNE,14,12.0,25.0,37,0.00,,,0.00,VWS V14.01,2013-05-04 17:49:00,
2013-05-04 12:54:00,48.6,26.0,30.06,North,359,14.0,25.0,41,0.00,,,0.00,VWS V14.01,2013-05-04 17:54:00,
2013-05-04 12:59:00,48.3,23.9,30.06,North,4,13.0,25.0,38,0.00,,,0.00,VWS V14.01,2013-05-04 17:59:00,
2013-05-04 13:03:00,48.0,21.7,30.06,NNE,20,14.0,28.0,35,0.00,,,0.00,VWS V14.01,2013-05-04 18:03:00,
2013-05-04 13:09:00,48.3,25.1,30.06,North,0,16.0,28.0,40,0.00,,,0.00,VWS V14.01,2013-05-04 18:09:00,
2013-05-04 13:14:00,48.3,20.5,30.06,NNE,21,13.0,32.0,33,0.00,,,0.00,VWS V14.01,2013-05-04 18:14:00,
2013-05-04 13:19:00,49.1,24.6,30.07,NE,42,12.0,17.0,38,0.00,,,0.00,VWS V14.01,2013-05-04 18:19:00,
2013-05-04 13:24:00,48.8,24.3,30.07,NNE,13,12.0,21.0,38,0.00,,,0.00,VWS V14.01,2013-05-04 18:24:00,
2013-05-04 13:29:00,48.5,24.1,30.07,NE,35,16.0,26.0,38,0.00,,,0.00,VWS V14.01,2013-05-04 18:29:00,
2013-05-04 13:34:00,49.2,23.4,30.06,North,356,11.0,13.0,36,0.00,,,0.00,VWS V14.01,2013-05-04 18:34:00,
2013-05-04 13:39:00,48.8,23.0,30.06,NNE,27,18.0,27.0,36,0.00,,,0.00,VWS V14.01,2013-05-04 18:39:00,
2013-05-04 13:44:00,48.8,25.0,30.06,North,0,12.0,27.0,39,0.00,,,0.00,VWS V14.01,2013-05-04 18:44:00,
2013-05-04 13:49:00,49.1,22.6,30.07,NNE,18,18.0,19.0,35,0.00,,,0.00,VWS V14.01,2013-05-04 18:49:00,
2013-05-04 13:54:00,48.9,21.8,30.07,North,4,12.0,19.0,34,0.00,,,0.00,VWS V14.01,2013-05-04 18:54:00,
2013-05-04 13:59:00,48.8,23.0,30.07,North,356,12.0,27.0,36,0.00,,,0.00,VWS V14.01,2013-05-04 18:59:00,
2013-05-04 14:04:00,49.1,22.0,30.07,North,1,10.0,18.0,34,0.00,,,0.00,VWS V14.01,2013-05-04 19:04:00,
2013-05-04 14:09:00,49.4,24.9,30.07,NNE,23,12.0,18.0,38,0.00,,,0.00,VWS V14.01,2013-05-04 19:09:00,
2013-05-04 14:13:00,49.4,23.6,30.07,NE,35,12.0,25.0,36,0.00,,,0.00,VWS V14.01,2013-05-04 19:13:00,
2013-05-04 14:18:00,49.2,22.0,30.07,NNE,13,14.0,19.0,34,0.00,,,0.00,VWS V14.01,2013-05-04 19:18:00,
2013-05-04 14:23:00,49.2,22.7,30.07,North,359,17.0,24.0,35,0.00,,,0.00,VWS V14.01,2013-05-04 19:23:00,
2013-05-04 14:28:00,49.4,20.8,30.07,NNE,25,13.0,24.0,32,0.00,,,0.00,VWS V14.01,2013-05-04 19:28:00,
2013-05-04 14:33:00,49.6,22.4,30.07,North,0,12.0,17.0,34,0.00,,,0.00,VWS V14.01,2013-05-04 19:33:00,
2013-05-04 14:38:00,49.4,24.9,30.07,NNE,16,20.0,20.0,38,0.00,,,0.00,VWS V14.01,2013-05-04 19:38:00,
2013-05-04 14:43:00,49.2,21.3,30.07,North,8,11.0,24.0,33,0.00,,,0.00,VWS V14.01,2013-05-04 19:43:00,
2013-05-04 14:48:00,49.8,26.5,30.07,NNE,14,10.0,17.0,40,0.00,,,0.00,VWS V14.01,2013-05-04 19:48:00,
2013-05-04 14:53:00,49.8,21.9,30.07,NNE,16,13.0,19.0,33,0.00,,,0.00,VWS V14.01,2013-05-04 19:53:00,
2013-05-04 14:58:00,49.5,17.8,30.07,NNE,14,14.0,19.0,28,0.00,,,0.00,VWS V14.01,2013-05-04 19:58:00,
2013-05-04 15:03:00,49.8,21.1,30.06,North,11,10.0,16.0,32,0.00,,,0.00,VWS V14.01,2013-05-04 20:03:00,
2013-05-04 15:08:00,49.6,18.7,30.06,NE,35,14.0,21.0,29,0.00,,,0.00,VWS V14.01,2013-05-04 20:08:00,
2013-05-04 15:13:00,49.6,23.8,30.06,NE,38,12.0,21.0,36,0.00,,,0.00,VWS V14.01,2013-05-04 20:13:00,
2013-05-04 15:18:00,49.4,23.6,30.07,NNE,25,11.0,16.0,36,0.00,,,0.00,VWS V14.01,2013-05-04 20:18:00,
2013-05-04 15:23:00,49.2,19.1,30.07,North,357,21.0,21.0,30,0.00,,,0.00,VWS V14.01,2013-05-04 20:23:00,
2013-05-04 15:28:00,48.9,20.4,30.07,North,0,12.0,22.0,32,0.00,,,0.00,VWS V14.01,2013-05-04 20:28:00,
2013-05-04 15:33:00,48.9,21.8,30.09,North,4,12.0,19.0,34,0.00,,,0.00,VWS V14.01,2013-05-04 20:33:00,
2013-05-04 15:38:00,48.6,19.4,30.09,North,356,14.0,20.0,31,0.00,,,0.00,VWS V14.01,2013-05-04 20:38:00,
2013-05-04 15:43:00,48.6,27.1,30.09,North,1,12.0,24.0,43,0.00,,,0.00,VWS V14.01,2013-05-04 20:43:00,
2013-05-04 15:48:00,48.8,21.7,30.08,North,6,10.0,22.0,34,0.00,,,0.00,VWS V14.01,2013-05-04 20:48:00,
2013-05-04 15:53:00,48.6,17.0,30.08,NNE,23,14.0,22.0,28,0.00,,,0.00,VWS V14.01,2013-05-04 20:53:00,
2013-05-04 15:58:00,48.5,22.8,30.08,North,6,13.0,22.0,36,0.00,,,0.00,VWS V14.01,2013-05-04 20:58:00,
2013-05-04 16:03:00,48.5,22.1,30.08,NNE,17,10.0,18.0,35,0.00,,,0.00,VWS V14.01,2013-05-04 21:03:00,
2013-05-04 16:08:00,48.5,17.7,30.08,NNE,18,11.0,24.0,29,0.00,,,0.00,VWS V14.01,2013-05-04 21:08:00,
2013-05-04 16:13:00,48.5,19.3,30.08,NNE,16,12.0,24.0,31,0.00,,,0.00,VWS V14.01,2013-05-04 21:13:00,
2013-05-04 16:18:00,48.5,17.7,30.08,North,0,17.0,21.0,29,0.00,,,0.00,VWS V14.01,2013-05-04 21:18:00,
2013-05-04 16:23:00,48.8,25.0,30.08,NNE,32,13.0,21.0,39,0.00,,,0.00,VWS V14.01,2013-05-04 21:23:00,
2013-05-04 16:28:00,48.6,23.5,30.08,NNE,18,12.0,21.0,37,0.00,,,0.00,VWS V14.01,2013-05-04 21:28:00,
2013-05-04 16:33:00,48.6,20.1,30.08,NNE,24,12.0,17.0,32,0.00,,,0.00,VWS V14.01,2013-05-04 21:33:00,
2013-05-04 16:38:00,48.6,21.5,30.08,North,1,12.0,18.0,34,0.00,,,0.00,VWS V14.01,2013-05-04 21:38:00,
2013-05-04 16:43:00,48.8,23.7,30.08,North,11,10.0,18.0,37,0.00,,,0.00,VWS V14.01,2013-05-04 21:43:00,
2013-05-04 16:48:00,48.8,23.0,30.08,North,10,14.0,19.0,36,0.00,,,0.00,VWS V14.01,2013-05-04 21:48:00,
2013-05-04 16:53:00,48.8,23.7,30.08,NNE,13,17.0,20.0,37,0.00,,,0.00,VWS V14.01,2013-05-04 21:53:00,
2013-05-04 16:58:00,48.8,25.6,30.08,North,359,14.0,20.0,40,0.00,,,0.00,VWS V14.01,2013-05-04 21:58:00,
2013-05-04 17:03:00,49.2,24.1,30.08,North,349,13.0,14.0,37,0.00,,,0.00,VWS V14.01,2013-05-04 22:03:00,
2013-05-04 17:08:00,49.2,27.7,30.08,North,0,11.0,17.0,43,0.00,,,0.00,VWS V14.01,2013-05-04 22:08:00,
2013-05-04 17:13:00,49.1,23.3,30.08,NNE,21,18.0,20.0,36,0.00,,,0.00,VWS V14.01,2013-05-04 22:13:00,
2013-05-04 17:18:00,49.1,25.8,30.08,NE,34,11.0,16.0,40,0.00,,,0.00,VWS V14.01,2013-05-04 22:18:00,
2013-05-04 17:23:00,48.9,26.8,30.08,NNE,31,13.0,17.0,42,0.00,,,0.00,VWS V14.01,2013-05-04 22:23:00,
2013-05-04 17:28:00,49.2,30.9,30.08,North,11,12.0,17.0,49,0.00,,,0.00,VWS V14.01,2013-05-04 22:28:00,
2013-05-04 17:33:00,48.8,25.0,30.09,North,357,13.0,19.0,39,0.00,,,0.00,VWS V14.01,2013-05-04 22:33:00,
2013-05-04 17:39:00,48.8,28.4,30.09,North,8,20.0,21.0,45,0.00,,,0.00,VWS V14.01,2013-05-04 22:39:00,
2013-05-04 17:44:00,49.1,28.7,30.09,North,8,8.0,21.0,45,0.00,,,0.00,VWS V14.01,2013-05-04 22:44:00,
2013-05-04 17:49:00,48.9,26.8,30.09,North,10,10.0,19.0,42,0.00,,,0.00,VWS V14.01,2013-05-04 22:49:00,
2013-05-04 17:54:00,49.1,30.3,30.09,North,0,12.0,19.0,48,0.00,,,0.00,VWS V14.01,2013-05-04 22:54:00,
2013-05-04 17:59:00,49.4,26.7,30.09,NNE,17,11.0,19.0,41,0.00,,,0.00,VWS V14.01,2013-05-04 22:59:00,
2013-05-04 18:04:00,49.5,25.6,30.09,North,0,12.0,12.0,39,0.00,,,0.00,VWS V14.01,2013-05-04 23:04:00,
2013-05-04 18:09:00,49.2,27.7,30.09,NNE,20,7.0,19.0,43,0.00,,,0.00,VWS V14.01,2013-05-04 23:09:00,
2013-05-04 18:14:00,49.2,28.2,30.09,North,359,10.0,19.0,44,0.00,,,0.00,VWS V14.01,2013-05-04 23:14:00,
2013-05-04 18:19:00,49.5,25.6,30.09,North,3,10.0,14.0,39,0.00,,,0.00,VWS V14.01,2013-05-04 23:19:00,
2013-05-04 18:24:00,49.6,25.0,30.09,NNE,23,11.0,16.0,38,0.00,,,0.00,VWS V14.01,2013-05-04 23:24:00,
2013-05-04 18:29:00,49.8,28.8,30.09,NNE,14,7.0,16.0,44,0.00,,,0.00,VWS V14.01,2013-05-04 23:29:00,
2013-05-04 18:34:00,49.8,27.6,30.08,North,7,12.0,14.0,42,0.00,,,0.00,VWS V14.01,2013-05-04 23:34:00,
2013-05-04 18:39:00,50.1,26.7,30.08,NNE,18,13.0,17.0,40,0.00,,,0.00,VWS V14.01,2013-05-04 23:39:00,
2013-05-04 18:44:00,49.8,21.9,30.08,North,6,11.0,19.0,33,0.00,,,0.00,VWS V14.01,2013-05-04 23:44:00,
2013-05-04 18:49:00,49.6,25.0,30.09,NNE,18,19.0,19.0,38,0.00,,,0.00,VWS V14.01,2013-05-04 23:49:00,
2013-05-04 18:54:00,49.8,22.6,30.09,NNE,24,11.0,20.0,34,0.00,,,0.00,VWS V14.01,2013-05-04 23:54:00,
2013-05-04 18:59:00,49.6,26.3,30.09,NNE,14,13.0,20.0,40,0.00,,,0.00,VWS V14.01,2013-05-04 23:59:00,
2013-05-04 19:04:00,49.6,23.1,30.09,North,11,12.0,16.0,35,0.00,,,0.00,VWS V14.01,2013-05-05 00:04:00,
2013-05-04 19:09:00,49.9,26.0,30.09,North,354,7.0,18.0,39,0.00,,,0.00,VWS V14.01,2013-05-05 00:09:00,
2013-05-04 19:14:00,49.8,21.9,30.09,NNE,23,10.0,18.0,33,0.00,,,0.00,VWS V14.01,2013-05-05 00:14:00,
2013-05-04 19:19:00,49.8,25.2,30.08,North,349,7.0,14.0,38,0.00,,,0.00,VWS V14.01,2013-05-05 00:19:00,
2013-05-04 19:24:00,49.6,23.1,30.08,NNE,18,11.0,18.0,35,0.00,,,0.00,VWS V14.01,2013-05-05 00:24:00,
2013-05-04 19:29:00,49.6,23.1,30.08,NNE,25,13.0,18.0,35,0.00,,,0.00,VWS V14.01,2013-05-05 00:29:00,
2013-05-04 19:34:00,49.5,23.0,30.09,North,0,12.0,13.0,35,0.00,,,0.00,VWS V14.01,2013-05-05 00:34:00,
2013-05-04 19:39:00,49.4,24.2,30.09,NNE,14,11.0,17.0,37,0.00,,,0.00,VWS V14.01,2013-05-05 00:39:00,
2013-05-04 19:44:00,49.4,26.1,30.09,NNE,13,10.0,17.0,40,0.00,,,0.00,VWS V14.01,2013-05-05 00:44:00,
2013-05-04 19:49:00,49.2,23.4,30.10,NNE,32,11.0,14.0,36,0.00,,,0.00,VWS V14.01,2013-05-05 00:49:00,
2013-05-04 19:54:00,49.1,25.2,30.10,NNE,16,7.0,16.0,39,0.00,,,0.00,VWS V14.01,2013-05-05 00:54:00,
2013-05-04 19:59:00,48.9,28.5,30.10,NNE,27,14.0,16.0,45,0.00,,,0.00,VWS V14.01,2013-05-05 00:59:00,
2013-05-04 20:04:00,49.1,27.0,30.10,NNE,25,11.0,12.0,42,0.00,,,0.00,VWS V14.01,2013-05-05 01:04:00,
2013-05-04 20:09:00,48.9,25.0,30.10,NNE,24,10.0,15.0,39,0.00,,,0.00,VWS V14.01,2013-05-05 01:09:00,
2013-05-04 20:14:00,48.6,29.3,30.10,NNE,23,12.0,17.0,47,0.00,,,0.00,VWS V14.01,2013-05-05 01:14:00,
2013-05-04 20:19:00,48.5,28.7,30.08,NNE,27,11.0,15.0,46,0.00,,,0.00,VWS V14.01,2013-05-05 01:19:00,
2013-05-04 20:24:00,48.2,27.9,30.08,NE,35,13.0,15.0,45,0.00,,,0.00,VWS V14.01,2013-05-05 01:24:00,
2013-05-04 20:29:00,48.0,27.7,30.08,NE,35,10.0,19.0,45,0.00,,,0.00,VWS V14.01,2013-05-05 01:29:00,
2013-05-04 20:34:00,47.9,27.0,30.09,NNE,32,15.0,15.0,44,0.00,,,0.00,VWS V14.01,2013-05-05 01:34:00,
2013-05-04 20:39:00,47.9,26.5,30.09,NNE,21,10.0,15.0,43,0.00,,,0.00,VWS V14.01,2013-05-05 01:39:00,
2013-05-04 20:44:00,47.6,27.3,30.09,NE,34,12.0,15.0,45,0.00,,,0.00,VWS V14.01,2013-05-05 01:44:00,
2013-05-04 20:49:00,47.6,27.9,30.10,NNE,27,9.0,13.0,46,0.00,,,0.00,VWS V14.01,2013-05-05 01:49:00,
2013-05-04 20:54:00,47.1,28.9,30.10,NE,35,11.0,16.0,49,0.00,,,0.00,VWS V14.01,2013-05-05 01:54:00,
2013-05-04 20:59:00,47.1,30.4,30.10,North,359,10.0,16.0,52,0.00,,,0.00,VWS V14.01,2013-05-05 01:59:00,
2013-05-04 21:04:00,47.0,26.2,30.11,NNE,23,12.0,14.0,44,0.00,,,0.00,VWS V14.01,2013-05-05 02:04:00,
2013-05-04 21:09:00,46.8,29.6,30.11,NNE,32,9.0,14.0,51,0.00,,,0.00,VWS V14.01,2013-05-05 02:09:00,
2013-05-04 21:14:00,46.7,26.5,30.11,NNE,17,10.0,14.0,45,0.00,,,0.00,VWS V14.01,2013-05-05 02:14:00,
2013-05-04 21:19:00,46.7,28.6,30.11,NNE,21,8.0,14.0,49,0.00,,,0.00,VWS V14.01,2013-05-05 02:19:00,
2013-05-04 21:24:00,46.5,27.4,30.11,NNE,23,10.0,14.0,47,0.00,,,0.00,VWS V14.01,2013-05-05 02:24:00,
2013-05-04 21:29:00,46.4,27.8,30.11,NNE,23,7.0,14.0,48,0.00,,,0.00,VWS V14.01,2013-05-05 02:29:00,
2013-05-04 21:34:00,46.4,28.8,30.12,NNE,23,10.0,14.0,50,0.00,,,0.00,VWS V14.01,2013-05-05 02:34:00,
2013-05-04 21:39:00,46.2,29.6,30.12,NNE,24,11.0,14.0,52,0.00,,,0.00,VWS V14.01,2013-05-05 02:39:00,
2013-05-04 21:44:00,46.2,31.8,30.12,NNE,20,10.0,14.0,57,0.00,,,0.00,VWS V14.01,2013-05-05 02:44:00,
2013-05-04 21:49:00,46.2,32.2,30.12,NNE,23,10.0,10.0,58,0.00,,,0.00,VWS V14.01,2013-05-05 02:49:00,
2013-05-04 21:54:00,46.0,30.3,30.12,NNE,31,10.0,13.0,54,0.00,,,0.00,VWS V14.01,2013-05-05 02:54:00,
2013-05-04 21:59:00,45.8,31.9,30.12,NNE,31,8.0,13.0,58,0.00,,,0.00,VWS V14.01,2013-05-05 02:59:00,
2013-05-04 22:04:00,46.0,32.1,30.12,NNE,23,7.0,10.0,58,0.00,,,0.00,VWS V14.01,2013-05-05 03:04:00,
2013-05-04 22:09:00,45.8,33.1,30.12,North,0,8.0,10.0,61,0.00,,,0.00,VWS V14.01,2013-05-05 03:09:00,
2013-05-04 22:14:00,45.7,31.4,30.12,NNE,16,8.0,12.0,57,0.00,,,0.00,VWS V14.01,2013-05-05 03:14:00,
2013-05-04 22:19:00,45.5,32.8,30.12,NNE,30,7.0,11.0,61,0.00,,,0.00,VWS V14.01,2013-05-05 03:19:00,
2013-05-04 22:24:00,45.5,31.2,30.12,NNE,23,8.0,12.0,57,0.00,,,0.00,VWS V14.01,2013-05-05 03:24:00,
2013-05-04 22:29:00,45.4,32.8,30.12,NE,47,8.0,12.0,61,0.00,,,0.00,VWS V14.01,2013-05-05 03:29:00,
2013-05-04 22:34:00,45.2,33.0,30.13,NNE,31,7.0,10.0,62,0.00,,,0.00,VWS V14.01,2013-05-05 03:34:00,
2013-05-04 22:39:00,45.1,33.7,30.13,NNE,17,6.0,12.0,64,0.00,,,0.00,VWS V14.01,2013-05-05 03:39:00,
2013-05-04 22:44:00,44.9,32.7,30.13,NNE,27,7.0,12.0,62,0.00,,,0.00,VWS V14.01,2013-05-05 03:44:00,
2013-05-04 22:49:00,44.8,31.8,30.13,NNE,28,7.0,12.0,60,0.00,,,0.00,VWS V14.01,2013-05-05 03:49:00,
2013-05-04 22:54:00,44.8,32.2,30.13,NE,37,7.0,12.0,61,0.00,,,0.00,VWS V14.01,2013-05-05 03:54:00,
2013-05-04 22:59:00,44.6,31.6,30.13,NNE,23,6.0,12.0,60,0.00,,,0.00,VWS V14.01,2013-05-05 03:59:00,
2013-05-04 23:01:00,44.5,32.3,30.13,North,10,10.0,12.0,62,0.00,,,0.00,VWS V14.01,2013-05-05 04:01:00,
2013-05-04 23:06:00,44.5,32.3,30.13,NE,38,7.0,10.0,62,0.00,,,0.00,VWS V14.01,2013-05-05 04:06:00,
2013-05-04 23:11:00,44.3,33.7,30.13,NNE,25,6.0,12.0,66,0.00,,,0.00,VWS V14.01,2013-05-05 04:11:00,
2013-05-04 23:16:00,44.3,32.9,30.12,North,6,7.0,12.0,64,0.00,,,0.00,VWS V14.01,2013-05-05 04:16:00,
2013-05-04 23:21:00,44.5,33.9,30.12,NNE,30,8.0,11.0,66,0.00,,,0.00,VWS V14.01,2013-05-05 04:21:00,
2013-05-04 23:26:00,44.3,34.0,30.12,North,10,7.0,11.0,67,0.00,,,0.00,VWS V14.01,2013-05-05 04:26:00,
2013-05-04 23:31:00,44.3,32.9,30.13,NE,35,7.0,12.0,64,0.00,,,0.00,VWS V14.01,2013-05-05 04:31:00,
2013-05-04 23:36:00,44.3,32.9,30.13,NNE,20,6.0,12.0,64,0.00,,,0.00,VWS V14.01,2013-05-05 04:36:00,
2013-05-04 23:41:00,44.2,33.2,30.13,NNE,14,7.0,12.0,65,0.00,,,0.00,VWS V14.01,2013-05-05 04:41:00,
2013-05-04 23:46:00,44.2,35.0,30.13,NE,35,7.0,14.0,70,0.00,,,0.00,VWS V14.01,2013-05-05 04:46:00,
2013-05-04 23:51:00,44.2,34.3,30.13,NNE,18,6.0,10.0,68,0.00,,,0.00,VWS V14.01,2013-05-05 04:51:00,
2013-05-04 23:56:00,43.9,33.3,30.13,NNE,17,8.0,11.0,66,0.00,,,0.00,VWS V14.01,2013-05-05 04:56:00,